Skip Page Navigation
NASA JPL Caltech
NASA Logo - Jet Propulsion Laboratory + View the NASA Portal
+ Center for Near-Earth Object Studies
JPL Home Earth Solar System Stars & Galaxies Technology
JPL Solar System Dynamics
BODIES ORBITS EPHEMERIDES TOOLS PHYSICAL DATA DISCOVERY FAQ SITE MAP
IMPORTANT: The SSD Announcement email list is now available. Major changes are coming in the near future, including possible hostname and/or URL changes. To be notified of such changes, subscribe to this email list.

Please visit this page for more details.


JPL Small-Body Database Browser
Search: [ help ]  
(2019 UE13)
Classification: Aten [NEO]          SPK-ID: 3892010
Ephemeris | Orbit Diagram | Orbital Elements | Mission Design | Physical Parameters | Close-Approach Data ]

[ hide orbit diagram ]

For accurate long-term ephemerides, please instead use our Horizons system.This orbit viewer was implemented using two-body methods, and hence should not be used for determining accurate long-term trajectories (over several years or decades) or planetary encounter circumstances.


[ revert to old Java-based viewer ]

Orbital Elements at Epoch 2459000.5 (2020-May-31.0) TDB
Reference: JPL 5 (heliocentric ecliptic J2000)
 Element Value Uncertainty (1-sigma)   Units 
e .3608738420406661 0.00029429  
a .8041539655207082 9.762e-05 au
q .5139558343910129 0.00029905 au
i 7.449590407874576 0.008927 deg
node 216.7923424943054 0.0011299 deg
peri 333.2924732397927 0.0031369 deg
M 163.8249108090064 0.073361 deg
tp 2458880.637128364765
(2020-Feb-01.13712836)
0.031851 TDB
period 263.3948254608925
0.72
0.047962
0.0001313
d
yr
n 1.366769447235975 0.00024888 deg/d
Q 1.094352096650403 0.00013285 au
  Orbit Determination Parameters
   # obs. used (total)      31  
   data-arc span      5 days  
   first obs. used      2019-10-28  
   last obs. used      2019-11-02  
   planetary ephem.      DE431  
   SB-pert. ephem.      SB431-N16  
   condition code      7  
   norm. resid. RMS      .32443  
   source      ORB  
   producer      Otto Matic  
   solution date      2019-Dec-18 08:05:05  

Additional Information
 Earth MOID = .0179282 au 
 Jupiter MOID = 3.86488 au 
 T_jup = 7.198 
[ show covariance matrix ]

Ephemeris | Orbit Diagram | Orbital Elements | Mission Design | Physical Parameters | Close-Approach Data ]

Physical Parameter Table
Parameter Symbol Value Units Sigma Reference Notes
absolute magnitude H 25.7   .25176 E2019Y12 autocmod 2.8

[ show close-approach data ]
Ephemeris | Orbit Diagram | Orbital Elements | Mission Design | Physical Parameters | Close-Approach Data ]
ABOUT SSD CREDITS/AWARDS PRIVACY/COPYRIGHT GLOSSARY LINKS
FirstGov 2020-Jun-04 01:52 UT
(server date/time)  
NASA Home Page
Site Manager:   Ryan S. Park
Webmaster  Alan B. Chamberlin